Le nostre stazioni meteo in Italia

Pubblicità
Il mio iltempo24.it
Tyndrum, Gran Bretagna (99020): Temperatura & dewpoint: 14.06.2019 23:00:00 - 20.06.2019 23:00:00 (BST)Tyndrum, Gran Bretagna (99020): precipitazioni: 14.06.2019 23:00:00 - 20.06.2019 23:00:00 (BST)
Data & Tempo tt [°C] td [°C] rr [mm]
20.06.2019 23:00:00 - - -
20.06.2019 22:00:00 9,2 5,8 0,0
20.06.2019 21:00:00 9,6 6,2 0,0
20.06.2019 20:00:00 10,2 6,5 0,0
20.06.2019 19:00:00 11,2 5,8 0,2
20.06.2019 18:00:00 12,1 7,6 0,0
20.06.2019 17:00:00 11,3 7,6 0,0
20.06.2019 16:00:00 11,2 7,5 0,0
20.06.2019 15:00:00 10,6 8,9 1,4
20.06.2019 14:00:00 11,7 7,9 0,0
20.06.2019 13:00:00 12,7 8,4 0,2
20.06.2019 12:00:00 12,1 10,0 0,2
20.06.2019 11:00:00 10,0 8,0 0,6
20.06.2019 10:00:00 9,6 7,5 0,6
20.06.2019 09:00:00 10,1 7,5 0,2
20.06.2019 08:00:00 9,0 7,3 0,2
20.06.2019 07:00:00 8,2 7,3 0,4
20.06.2019 06:00:00 7,9 7,2 0,4
20.06.2019 05:00:00 7,9 7,4 0,0
20.06.2019 04:00:00 8,3 8,0 0,0
20.06.2019 03:00:00 8,4 8,0 0,2
20.06.2019 02:00:00 8,6 8,1 1,4
20.06.2019 01:00:00 8,8 8,3 3,2
20.06.2019 00:00:00 9,5 9,0 1,2
19.06.2019 23:00:00 9,7 8,9 0,4
19.06.2019 22:00:00 10,2 9,4 0,2
19.06.2019 21:00:00 10,8 9,0 0,0
19.06.2019 20:00:00 11,0 9,3 0,0
19.06.2019 19:00:00 11,0 9,9 0,2
19.06.2019 18:00:00 11,6 9,7 2,0
19.06.2019 17:00:00 11,8 9,5 1,0
19.06.2019 16:00:00 13,5 10,1 0,0
19.06.2019 15:00:00 12,6 11,0 1,6
19.06.2019 14:00:00 13,7 8,1 0,0
19.06.2019 13:00:00 14,2 9,0 0,0
19.06.2019 12:00:00 14,2 9,6 0,0
19.06.2019 11:00:00 11,8 9,0 0,0
19.06.2019 10:00:00 11,8 9,5 0,0
19.06.2019 09:00:00 11,8 9,3 0,0
19.06.2019 08:00:00 11,3 9,4 0,0
19.06.2019 07:00:00 11,0 9,3 0,0
19.06.2019 06:00:00 10,2 9,3 0,0
19.06.2019 05:00:00 9,1 8,6 0,0
19.06.2019 04:00:00 9,3 8,6 0,0
19.06.2019 03:00:00 10,0 9,1 0,4
19.06.2019 02:00:00 10,3 9,0 0,0
19.06.2019 01:00:00 10,1 9,1 0,8
19.06.2019 00:00:00 10,6 8,9 0,0
18.06.2019 23:00:00 10,7 8,9 0,0
18.06.2019 22:00:00 11,0 9,0 0,2
18.06.2019 21:00:00 11,5 8,9 0,0
18.06.2019 20:00:00 12,1 9,1 0,0
18.06.2019 19:00:00 12,4 8,8 0,0
18.06.2019 18:00:00 13,4 8,3 0,0
18.06.2019 17:00:00 12,9 8,8 0,0
18.06.2019 16:00:00 12,1 9,5 0,2
18.06.2019 15:00:00 12,8 9,7 0,0
18.06.2019 14:00:00 13,5 8,9 0,0
18.06.2019 13:00:00 11,7 8,4 0,4
18.06.2019 12:00:00 10,9 8,9 0,0
18.06.2019 11:00:00 10,8 8,9 0,6
18.06.2019 10:00:00 10,2 8,8 1,4
18.06.2019 09:00:00 10,3 8,6 3,0
18.06.2019 08:00:00 10,1 7,7 0,4
18.06.2019 07:00:00 11,1 6,2 0,0
18.06.2019 06:00:00 10,5 8,2 0,4
18.06.2019 05:00:00 10,6 7,4 0,0
18.06.2019 04:00:00 10,4 8,2 0,0
18.06.2019 03:00:00 9,8 8,2 0,0
18.06.2019 02:00:00 10,1 8,6 0,0
18.06.2019 01:00:00 10,1 8,2 0,0
18.06.2019 00:00:00 10,2 7,3 0,0
17.06.2019 23:00:00 10,0 7,9 0,0
17.06.2019 22:00:00 11,1 8,2 0,0
17.06.2019 21:00:00 12,1 7,7 0,0
17.06.2019 20:00:00 13,0 7,2 0,0
17.06.2019 19:00:00 13,4 7,0 0,0
17.06.2019 18:00:00 13,5 7,5 0,0
17.06.2019 17:00:00 11,8 8,4 0,6
17.06.2019 16:00:00 11,5 10,1 3,2
17.06.2019 15:00:00 11,6 9,0 1,8
17.06.2019 14:00:00 11,6 9,7 2,4
17.06.2019 13:00:00 13,0 9,6 0,0
17.06.2019 12:00:00 12,1 9,2 1,0
17.06.2019 11:00:00 11,1 9,4 2,8
17.06.2019 10:00:00 11,4 9,1 0,2
17.06.2019 09:00:00 10,4 8,9 0,4
17.06.2019 08:00:00 10,4 8,3 0,0
17.06.2019 07:00:00 10,3 7,5 0,0
17.06.2019 06:00:00 10,2 7,6 0,0
17.06.2019 05:00:00 10,5 8,5 0,0
17.06.2019 04:00:00 9,5 9,1 2,8
17.06.2019 03:00:00 9,6 9,0 0,8
17.06.2019 02:00:00 9,7 8,7 3,4
17.06.2019 01:00:00 9,7 8,9 7,2
17.06.2019 00:00:00 9,9 9,4 1,6
16.06.2019 23:00:00 10,1 9,6 0,8
16.06.2019 22:00:00 10,5 9,6 0,4
16.06.2019 21:00:00 10,8 9,2 1,2
16.06.2019 20:00:00 13,0 6,7 0,0
16.06.2019 19:00:00 14,0 6,8 0,0
16.06.2019 18:00:00 14,5 6,9 0,0
16.06.2019 17:00:00 15,9 7,8 0,0
16.06.2019 16:00:00 14,8 6,0 0,0
16.06.2019 15:00:00 14,8 7,8 0,0
16.06.2019 14:00:00 12,3 5,8 0,0
16.06.2019 13:00:00 14,1 8,6 0,0
16.06.2019 12:00:00 12,0 7,9 0,2
16.06.2019 11:00:00 10,2 7,9 0,2
16.06.2019 10:00:00 11,9 9,5 0,0
16.06.2019 09:00:00 10,1 8,4 0,4
16.06.2019 08:00:00 10,0 8,4 0,0
16.06.2019 07:00:00 9,4 8,1 0,0
16.06.2019 06:00:00 9,3 8,7 0,0
16.06.2019 05:00:00 8,4 7,9 0,0
16.06.2019 04:00:00 8,6 7,7 0,0
16.06.2019 03:00:00 9,4 8,1 0,4
16.06.2019 02:00:00 9,5 8,3 0,4
16.06.2019 01:00:00 9,8 8,6 0,4
16.06.2019 00:00:00 10,5 8,6 0,0
15.06.2019 23:00:00 11,2 8,3 0,0
15.06.2019 22:00:00 11,5 8,3 0,0
15.06.2019 21:00:00 12,1 8,1 0,0
15.06.2019 20:00:00 14,1 7,7 0,0
15.06.2019 19:00:00 14,6 6,3 0,0
15.06.2019 18:00:00 14,4 10,9 0,4
15.06.2019 17:00:00 16,7 9,8 0,0
15.06.2019 16:00:00 13,6 10,3 0,4
15.06.2019 15:00:00 13,3 11,1 0,4
15.06.2019 14:00:00 13,2 9,5 0,0
15.06.2019 13:00:00 13,9 8,7 0,0
15.06.2019 12:00:00 13,4 9,7 0,0
15.06.2019 11:00:00 12,2 10,4 0,0
15.06.2019 10:00:00 11,7 10,3 0,4
15.06.2019 09:00:00 10,5 9,6 0,4
15.06.2019 08:00:00 10,2 9,7 0,4
15.06.2019 07:00:00 9,7 9,3 0,4
15.06.2019 06:00:00 9,3 8,7 0,8
15.06.2019 05:00:00 9,2 8,2 2,0
15.06.2019 04:00:00 9,9 7,9 0,6
15.06.2019 03:00:00 9,0 8,1 0,2
15.06.2019 02:00:00 9,3 7,8 0,4
15.06.2019 01:00:00 10,4 7,3 0,0
15.06.2019 00:00:00 9,8 7,6 0,2
14.06.2019 23:00:00 10,0 7,5 0,0

tt = Temperatura
td = dewpoint
rr = precipitazioni

Stazioni seguenti

WeatherPro
AMSI
MeteoEarth